Regional Weather Roundup
Issued by NWS

Home | Current Version | Previous Version | Graphics & Text | Print | Product List | Glossary On
Versions: 1 2 3 4 5 6 7 8 9 10 11 12 13 14 15 16 17 18 19 20 21 22 23 24 25 26 27 28 29 30 31 32 33 34 35 36 37 38 39 40 41 42 43 44 45 46 47 48 49 50
384
ASUS43 KDMX 262001
RWRIA

WEATHER ROUNDUP FOR IOWA
NATIONAL WEATHER SERVICE DES MOINES IA
300 PM CDT FRI MAY 26 2017

NOTE: "FAIR" INDICATES FEW OR NO CLOUDS BELOW 12,000 FEET WITH NO
SIGNIFICANT WEATHER AND/OR OBSTRUCTIONS TO VISIBILITY.

* - THESE STATIONS ARE NOT NWS STATIONS...THUS NOT UNDER NWS
QUALITY CONTROL.  THEY ALSO DO NOT REPORT WEATHER SUCH
AS PRECIPITATION OR FOG.

IAZ001>003-012>014-020>022-031>034-043>046-262100-
   NORTHWEST IOWA

CITY           SKY/WX    TMP DP  RH WIND       PRES   REMARKS
CARROLL *      MOSUNNY   81  57  44 VRB5G12   29.77S HX  81
CHEROKEE *     MOSUNNY   75  50  41 NW7       29.79
DENISON *      MOSUNNY   75  50  41 N9G17     29.81S
LE MARS *      MOSUNNY   77  50  38 NW12G21   29.82S
ORANGE CITY *  SUNNY     73  52  46 NW10G21   29.81S
SHELDON *      SUNNY     77  45  31 W15       29.78S
SIOUX CITY     MOSUNNY   76  53  44 NW10      29.81S
SPENCER        SUNNY     78  47  33 W12G22    29.78F
STORM LAKE *   SUNNY     77  46  33 NW16G23   29.79F
$$

IAZ055>058-069>071-079>083-090>094-262100-
   SOUTHWEST IOWA

CITY           SKY/WX    TMP DP  RH WIND       PRES   REMARKS
ATLANTIC *     MOSUNNY   81  59  47 N9        29.77S HX  81
AUDUBON *      MOSUNNY   81  59  47 N7        29.79S HX  81
CLARINDA *     PTSUNNY   82  59  44 N7        29.78S HX  82
COUNCIL BLFS * SUNNY     79  55  44 NW14      29.80S
CRESTON *      PTSUNNY   79  59  50 N9        29.77F HX  80
HARLAN  *      MOSUNNY   81  57  44 N14       29.82S HX  81
LAMONI         SUNNY     80  62  54 N8        29.76S HX  81
RED OAK *      SUNNY     82  59  44 N7        29.77S HX  82
SHENANDOAH *   MOSUNNY   82  59  44 NW9G15    29.77S HX  82
$$

IAZ047>049-059>061-072>074-084-262100-
   CENTRAL IOWA

CITY           SKY/WX    TMP DP  RH WIND       PRES   REMARKS
AMES           SUNNY     77  60  55 W5        29.76F
ANKENY *       SUNNY     77  59  53 N5        29.77S
BOONE *        MOSUNNY   77  61  57 VRB6G12   29.76S
CHARITON *     SUNNY     77  63  61 N8        29.76S
DES MOINES     MOSUNNY   80  57  45 N3        29.75F HX  80
GRINNELL*      MOSUNNY   70  62  74 E5        29.78F
KNOXVILLE *    SUNNY     75  59  57 N8        29.75S
MARSHALLTOWN   SUNNY     74  60  61 VRB3      29.76F
NEWTON *       SUNNY     75  59  57 NW5G14    29.75F
PELLA *        SUNNY     76  61  58 CALM      29.77S
PERRY *          N/A     80  54  41 W7        29.76F HX  80
$$

IAZ004>006-015-016-023>025-035-036-262100-
   NORTH CENTRAL IOWA

CITY           SKY/WX    TMP DP  RH WIND       PRES   REMARKS
ALGONA *       PTSUNNY   77  52  41 NW7       29.77S
CLARION *      MOSUNNY   75  57  53 NW6       29.77S
ESTHERVILLE    SUNNY     76  54  46 W13       29.77S
FORT DODGE *   MOSUNNY   75  59  57 NW3       29.78S
MASON CITY     SUNNY     74  56  53 VRB6      29.79S
FOREST CITY *    N/A     81  46  30 CALM      29.78S HX  80
WEBSTER CITY * MOSUNNY   77  55  47 VRB5G13   29.75S
IOWA FALLS *     N/A     77  56  48 CALM      29.77F
$$

IAZ007>011-017>019-026>030-037>042-050>054-066-262100-
   NORTHEAST IOWA

CITY           SKY/WX    TMP DP  RH WIND       PRES   REMARKS
CEDAR RAPIDS   CLOUDY    64  62  93 E9        29.78S
CHARLES CITY * SUNNY     70  59  68 S10       29.80S
CLINTON *      CLOUDY    64  62  93 NE9       29.78F
DECORAH *      CLOUDY    66  57  72 SE9       29.80S
DUBUQUE        CLOUDY    62  59  90 E6        29.82R
MONTICELLO *   PTSUNNY   64  61  88 E7        29.80S
OELWEIN *      PTSUNNY   68  59  73 SE10      29.81R
WATERLOO       MOSUNNY   70  59  68 SE8       29.78S
$$

IAZ064-065-067-068-078-262100-
   EAST CENTRAL IOWA

CITY           SKY/WX    TMP DP  RH WIND       PRES   REMARKS
DAVENPORT      CLOUDY    68  62  81 NE5       29.77F
IOWA CITY      CLOUDY    67  60  78 E6        29.78S
MT. PLEASANT * SUNNY     73  60  64 NW3       29.75F
MUSCATINE *    CLOUDY    66  61  82 CALM      29.77F
QUAD CITIES    CLOUDY    68  61  78 N5        29.76F
$$

IAZ062-063-075>077-085>089-095>099-262100-
   SOUTHEAST IOWA

CITY           SKY/WX    TMP DP  RH WIND       PRES   REMARKS
BURLINGTON     MOSUNNY   72  66  81 NW6       29.75F
FAIRFIELD *    PTSUNNY   70  61  73 VRB5      29.76S
FORT MADISON * MOSUNNY   72  66  83 NE5       29.75F
KEOKUK *       SUNNY     73  66  78 VRB6      29.74S
OSKALOOSA *      N/A     72  62  72 N7        29.77S
OTTUMWA        MOSUNNY   75  64  68 N9        29.76R
WASHINGTON *   CLOUDY    66  63  88 VRB5      29.78S
$$

ABBREVIATIONS USED IN REMARKS
   TC - TEMPERATURES IN CELSIUS
  WCI - WIND CHILL INDEX
   HX - HEAT INDEX
  VSB - VISIBILITY
$$





USA.gov is the U.S. government's official web portal to all federal, state and local government web resources and services.